TimeCST,TemperatureF,Dew PointF,Humidity,Sea Level PressureIn,VisibilityMPH,Wind Direction,Wind SpeedMPH,Gust SpeedMPH,PrecipitationIn,Events,Conditions,WindDirDegrees,DateUTC
12:55 AM,25.5,19.8,79,29.95,10.0,WSW,8.1,-,N/A,,Clear,250,2012-12-31 06:55:00
1:55 AM,23.2,18.3,82,29.95,10.0,West,9.2,-,N/A,,Clear,270,2012-12-31 07:55:00
2:55 AM,24.4,19.2,81,29.96,10.0,West,12.7,-,N/A,,Partly Cloudy,280,2012-12-31 08:55:00
3:55 AM,22.6,18.0,82,29.99,10.0,West,12.7,-,N/A,,Clear,280,2012-12-31 09:55:00
4:55 AM,20.5,16.2,83,30.00,10.0,West,11.5,-,N/A,,Clear,280,2012-12-31 10:55:00
5:13 AM,21.2,15.8,80,30.01,10.0,WNW,11.5,-,N/A,,Mostly Cloudy,290,2012-12-31 11:13:00
5:55 AM,20.1,15.4,82,30.04,10.0,NW,15.0,21.9,N/A,,Overcast,310,2012-12-31 11:55:00
6:55 AM,19.4,15.8,86,30.06,10.0,WNW,10.4,-,N/A,,Overcast,300,2012-12-31 12:55:00
7:55 AM,19.4,14.0,80,30.06,10.0,WNW,18.4,-,N/A,,Overcast,300,2012-12-31 13:55:00
8:55 AM,17.6,12.2,79,30.09,10.0,WNW,12.7,-,N/A,Snow,Light Snow,290,2012-12-31 14:55:00
9:55 AM,17.6,10.4,73,30.12,7.0,WNW,11.5,-,N/A,Snow,Light Snow,290,2012-12-31 15:55:00
9:59 AM,17.6,10.4,73,30.12,10.0,WNW,9.2,-,N/A,Snow,Light Snow,300,2012-12-31 15:59:00
10:00 AM,17.6,10.4,73,30.12,10.0,WNW,9.2,-,N/A,Snow,Light Snow,300,2012-12-31 16:00:00
10:01 AM,17.6,10.4,73,30.12,10.0,WNW,9.2,-,N/A,Snow,Light Snow,300,2012-12-31 16:01:00
10:55 AM,17.6,10.4,73,30.12,7.0,WNW,12.7,-,N/A,Snow,Light Snow,290,2012-12-31 16:55:00
11:33 AM,15.8,8.6,73,30.11,10.0,NNW,11.5,-,N/A,,Mostly Cloudy,330,2012-12-31 17:33:00
11:55 AM,17.6,8.6,68,30.11,10.0,NNW,11.5,-,N/A,,Mostly Cloudy,330,2012-12-31 17:55:00
12:55 PM,17.6,6.8,63,30.09,10.0,WNW,12.7,-,N/A,,Mostly Cloudy,290,2012-12-31 18:55:00
1:55 PM,19.4,8.6,63,30.10,10.0,West,11.5,-,N/A,,Mostly Cloudy,280,2012-12-31 19:55:00
2:55 PM,19.4,8.6,63,30.11,10.0,WNW,10.4,-,N/A,,Mostly Cloudy,290,2012-12-31 20:55:00
3:55 PM,15.8,6.8,68,30.12,10.0,WNW,8.1,-,N/A,,Mostly Cloudy,290,2012-12-31 21:55:00
4:55 PM,10.4,3.2,73,30.15,10.0,WNW,8.1,-,N/A,,Scattered Clouds,300,2012-12-31 22:55:00
6:55 PM,3.2,-0.4,85,30.18,10.0,NW,8.1,-,N/A,,Mostly Cloudy,310,2013-01-01 00:55:00
7:55 PM,3.2,-0.4,85,30.20,10.0,WNW,6.9,-,N/A,,Scattered Clouds,290,2013-01-01 01:55:00
8:55 PM,3.2,-0.4,85,30.20,10.0,WNW,8.1,-,N/A,,Mostly Cloudy,300,2013-01-01 02:55:00
9:55 PM,1.4,-2.2,85,30.22,10.0,WNW,5.8,-,N/A,,Scattered Clouds,290,2013-01-01 03:55:00
10:55 PM,-0.4,-4.0,85,30.25,10.0,West,4.6,-,N/A,,Scattered Clouds,280,2013-01-01 04:55:00
11:55 PM,-2.2,-5.8,85,30.25,10.0,WNW,3.5,-,N/A,,Clear,300,2013-01-01 05:55:00